Lumberton, NJ

5:28 AM EDT on August 24, 2016 (GMT -0400)
South Jersey Regional

Weather History for KVAY - January, 2014

Change the Weather History Date:

Tuesday, January 7, 2014

  Actual Average (KWRI) Record (KWRI)
Temperature  
Mean Temperature 6 °F -  
Max Temperature 10 °F 40 °F 66 °F (2008)
Min Temperature 3 °F 24 °F 3 °F (2014)
Degree Days  
Heating Degree Days 58    
Moisture  
Dew Point -12 °F    
Average Humidity 41    
Maximum Humidity 47    
Minimum Humidity 35    
Precipitation  
Precipitation 0.00 in - - ()
Sea Level Pressure  
Sea Level Pressure 30.25 in    
Wind  
Wind Speed 14 mph (West)    
Max Wind Speed 23 mph    
Max Gust Speed 31 mph    
Visibility 10 miles    
Events      
Averages and records for this station are not official NWS values.
T = Trace of Precipitation, MM = Missing Value Source: NWS Daily Summary

Daily Weather History Graph

Daily Weather History Graph

Search for Another Location

Airport or City:

Trip Planner

Search our weather history database for the weather conditions in past years. The results will help you decide how hot, cold, wet, or windy it might be!

Date:

Astronomy

Jan. 07, 2014 Rise Set
Actual Time 7:21 AM EST 4:50 PM EST
Civil Twilight 6:51 AM EST 5:20 PM EST
Nautical Twilight 6:17 AM EST 5:54 PM EST
Astronomical Twilight 5:44 AM EST 6:27 PM EST
Moon 11:08 AM EST (1/7) No Moon Set
Length of Visible Light 10h 29m
Length of Day
9h 29m
Waxing Crescent, 45% of the Moon is Illuminated
Jan 7
Waxing Crescent
Jan 7
First Quarter
Jan 15
Full
Jan 24
Last Quarter
Jan 30
New

Hourly Weather History & Observations

Time (EST) Temp. Windchill Dew Point Humidity Pressure Visibility Wind Dir Wind Speed Gust Speed Precip Events Conditions
12:54 AM 10.9 °F -4.1 °F -11.9 °F 35% 29.95 in 10.0 mi West 12.7 mph 29.9 mph N/A   Clear
1:54 AM 9.0 °F -5.9 °F -9.0 °F 44% 30.00 in 10.0 mi West 11.5 mph 19.6 mph N/A   Clear
2:54 AM 7.0 °F -12.6 °F -11.9 °F 42% 30.04 in 10.0 mi WNW 19.6 mph 27.6 mph N/A   Clear
3:54 AM 6.1 °F -11.6 °F -13.0 °F 41% 30.07 in 10.0 mi WNW 15.0 mph 24.2 mph N/A   Clear
4:54 AM 5.0 °F -11.6 °F -14.1 °F 41% 30.11 in 10.0 mi West 12.7 mph 29.9 mph N/A   Clear
5:54 AM 3.9 °F -15.6 °F -15.0 °F 41% 30.14 in 10.0 mi West 17.3 mph 27.6 mph N/A   Clear
6:54 AM 3.9 °F -15.0 °F -16.1 °F 39% 30.19 in 10.0 mi WNW 16.1 mph 27.6 mph N/A   Clear
7:54 AM 3.0 °F -12.5 °F -15.0 °F 43% 30.23 in 10.0 mi West 10.4 mph 31.1 mph N/A   Clear
8:54 AM 3.9 °F -18.1 °F -16.1 °F 39% 30.27 in 10.0 mi West 23.0 mph 29.9 mph N/A   Clear
9:54 AM 6.1 °F -10.2 °F -14.1 °F 39% 30.31 in 10.0 mi West 12.7 mph 21.9 mph N/A   Clear
10:54 AM 6.1 °F -10.9 °F -15.0 °F 38% 30.29 in 10.0 mi WNW 13.8 mph 31.1 mph N/A   Clear
11:54 AM 7.0 °F -12.6 °F -14.1 °F 38% 30.28 in 10.0 mi West 19.6 mph 25.3 mph N/A   Clear
12:54 PM 8.1 °F -10.2 °F -13.0 °F 38% 30.27 in 10.0 mi West 17.3 mph 26.5 mph N/A   Clear
1:54 PM 9.0 °F -7.3 °F -13.0 °F 36% 30.29 in 10.0 mi West 13.8 mph 28.8 mph N/A   Partly Cloudy
2:54 PM 10.0 °F -6.5 °F -11.0 °F 38% 30.29 in 10.0 mi West 15.0 mph 23.0 mph N/A   Clear
3:54 PM 10.9 °F -1.8 °F -9.9 °F 39% 30.30 in 10.0 mi West 9.2 mph 23.0 mph N/A   Clear
4:54 PM 10.0 °F -5.2 °F -9.9 °F 40% 30.31 in 10.0 mi West 12.7 mph 20.7 mph N/A   Clear
5:54 PM 10.0 °F -2.9 °F -9.0 °F 42% 30.33 in 10.0 mi West 9.2 mph - N/A   Clear
6:54 PM 10.0 °F -2.9 °F -9.0 °F 42% 30.36 in 10.0 mi West 9.2 mph - N/A   Clear
7:54 PM 10.9 °F -0.8 °F -8.0 °F 42% 30.38 in 10.0 mi WSW 8.1 mph - N/A   Clear
8:54 PM 10.9 °F -0.8 °F -7.1 °F 44% 30.40 in 10.0 mi WSW 8.1 mph - N/A   Clear
9:54 PM 10.9 °F -3.4 °F -8.0 °F 42% 30.42 in 10.0 mi WSW 11.5 mph - N/A   Clear
10:54 PM 10.9 °F -0.8 °F -7.1 °F 44% 30.43 in 10.0 mi WSW 8.1 mph - N/A   Clear
11:54 PM 10.9 °F -1.8 °F -6.0 °F 47% 30.44 in 10.0 mi West 9.2 mph - N/A   Clear